Weather History for Galax, VA

Change the Weather History Date:

Wednesday, November 21, 2012

  Actual Average (KBLF) Record (KBLF)
Temperature  
Mean Temperature 51 °F 45 °F  
Max Temperature 60 °F 53 °F 69 °F (1999)
Min Temperature 42 °F 37 °F 14 °F (1964)
Degree Days  
Heating Degree Days 14 20  
Month to date heating degree days 344  
Since 1 July heating degree days 708  
Cooling Degree Days 0 0  
Month to date cooling degree days 0  
Year to date cooling degree days 851  
Growing Degree Days 1 (Base 50)    
Moisture  
Dew Point 24 °F    
Average Humidity 38    
Maximum Humidity 76    
Minimum Humidity 17    
Precipitation  
Precipitation 0.00 in 0.09 in 1.27 in (1991)
Month to date precipitation 1.84  
Year to date precipitation 35.87  
Snow  
Snow 0.00 in - - ()
Month to date snowfall  
Since 1 July snowfall  
Since 1 September snowfall  
Snow Depth -    
Sea Level Pressure  
Sea Level Pressure 30.17 in    
Wind  
Wind Speed 5 mph (NNW)    
Max Wind Speed 12 mph    
Max Gust Speed 16 mph    
Visibility 10 miles    
Events      
T = Trace of Precipitation, MM = Missing Value Source: NWS Daily Summary

Daily Weather History Graph

Daily Weather History Graph

Search for Another Location

Airport:

Trip Planner

Search our weather history database for the weather conditions in past years. The results will help you decide how hot, cold, wet, or windy it might be!

Date:

Astronomy

Nov. 21, 2012 Rise Set
Actual Time 7:08 AM EST 5:10 PM EST
Civil Twilight 6:40 AM EST 5:38 PM EST
Nautical Twilight 6:08 AM EST 6:09 PM EST
Astronomical Twilight 5:37 AM EST 6:40 PM EST
Moon 1:17 PM EST (11/21) 12:35 AM EST (11/21)
Length of Visible Light 10h 58m
Length of Day
10h 02m
First Quarter, 61% of the Moon is Illuminated
Nov 21
First Quarter
Nov 28
Full
Dec 6
Last Quarter
Dec 13
New
Dec 20
First Quarter

Hourly Weather History & Observations

Time (EST) Temp. Windchill Dew Point Humidity Pressure Visibility Wind Dir Wind Speed Gust Speed Precip Events Conditions
12:15 AM 46.4 °F 45.2 °F 33.8 °F 62% 30.14 in 10.0 mi West 3.5 mph - N/A   Clear
12:35 AM 44.6 °F 43.1 °F 33.8 °F 66% 30.13 in 10.0 mi West 3.5 mph - N/A   Clear
12:55 AM 42.8 °F 39.3 °F 35.6 °F 76% 30.13 in 10.0 mi West 5.8 mph - N/A   Clear
1:15 AM 46.4 °F 44.3 °F 33.8 °F 62% 30.12 in 10.0 mi WNW 4.6 mph - N/A   Clear
1:35 AM 46.4 °F 45.2 °F 32.0 °F 57% 30.12 in 10.0 mi NW 3.5 mph - N/A   Clear
1:55 AM 46.4 °F 43.5 °F 30.2 °F 53% 30.12 in 10.0 mi NNW 5.8 mph - N/A   Clear
2:15 AM 46.4 °F 45.2 °F 30.2 °F 53% 30.12 in 10.0 mi NNW 3.5 mph - N/A   Clear
2:35 AM 46.4 °F 45.2 °F 30.2 °F 53% 30.12 in 10.0 mi North 3.5 mph - N/A   Clear
2:55 AM 44.6 °F 41.4 °F 30.2 °F 57% 30.12 in 10.0 mi North 5.8 mph - N/A   Clear
3:15 AM 44.6 °F 41.4 °F 30.2 °F 57% 30.13 in 10.0 mi North 5.8 mph - N/A   Clear
3:35 AM 42.8 °F 41.1 °F 30.2 °F 61% 30.12 in 10.0 mi NNW 3.5 mph - N/A   Clear
3:55 AM 44.6 °F 43.1 °F 30.2 °F 57% 30.13 in 10.0 mi North 3.5 mph - N/A   Clear
4:15 AM 44.6 °F 42.2 °F 30.2 °F 57% 30.12 in 10.0 mi North 4.6 mph - N/A   Clear
4:35 AM 44.6 °F 42.2 °F 30.2 °F 57% 30.13 in 10.0 mi NNW 4.6 mph - N/A   Clear
4:55 AM 44.6 °F 41.4 °F 30.2 °F 57% 30.13 in 10.0 mi NW 5.8 mph - N/A   Clear
5:15 AM 44.6 °F 42.2 °F 30.2 °F 57% 30.14 in 10.0 mi NW 4.6 mph - N/A   Clear
5:35 AM 42.8 °F - 30.2 °F 61% 30.14 in 10.0 mi Calm Calm - N/A   Clear
5:55 AM 42.8 °F - 30.2 °F 61% 30.15 in 10.0 mi Calm Calm - N/A   Clear
6:15 AM 44.6 °F - 30.2 °F 57% 30.15 in 10.0 mi Calm Calm - N/A   Clear
6:35 AM 44.6 °F 42.2 °F 30.2 °F 57% 30.15 in 10.0 mi WNW 4.6 mph - N/A   Clear
6:55 AM 44.6 °F 42.2 °F 30.2 °F 57% 30.16 in 10.0 mi NW 4.6 mph - N/A   Clear
7:15 AM 44.6 °F 43.1 °F 30.2 °F 57% 30.17 in 10.0 mi West 3.5 mph - N/A   Clear
7:35 AM 44.6 °F 41.4 °F 30.2 °F 57% 30.18 in 10.0 mi NW 5.8 mph - N/A   Clear
7:55 AM 44.6 °F 41.4 °F 30.2 °F 57% 30.18 in 10.0 mi NNW 5.8 mph - N/A   Clear
8:15 AM 44.6 °F 43.1 °F 30.2 °F 57% 30.18 in 10.0 mi NW 3.5 mph - N/A   Clear
8:35 AM 46.4 °F - 30.2 °F 53% 30.18 in 10.0 mi Calm Calm - N/A   Clear
8:55 AM 48.2 °F - 30.2 °F 50% 30.18 in 10.0 mi North 4.6 mph - N/A   Clear
9:15 AM 48.2 °F - 32.0 °F 54% 30.19 in 10.0 mi NNW 8.1 mph - N/A   Clear
9:35 AM 50.0 °F - 30.2 °F 47% 30.20 in 10.0 mi North 6.9 mph - N/A   Clear
9:55 AM 51.8 °F - 30.2 °F 44% 30.20 in 10.0 mi North 5.8 mph - N/A   Clear
10:15 AM 51.8 °F - 28.4 °F 41% 30.20 in 10.0 mi North 8.1 mph - N/A   Clear
10:35 AM 53.6 °F - 26.6 °F 35% 30.20 in 10.0 mi North 5.8 mph - N/A   Clear
10:55 AM 53.6 °F - 26.6 °F 35% 30.20 in 10.0 mi NW 8.1 mph - N/A   Clear
11:15 AM 55.4 °F - 23.0 °F 29% 30.19 in 10.0 mi NNW 9.2 mph - N/A   Clear
11:35 AM 57.2 °F - 19.4 °F 23% 30.19 in 10.0 mi NE 8.1 mph - N/A   Clear
11:55 AM 57.2 °F - 17.6 °F 21% 30.18 in 10.0 mi NE 6.9 mph - N/A   Clear
12:15 PM 57.2 °F - 17.6 °F 21% 30.18 in 10.0 mi NNE 6.9 mph - N/A   Clear
12:35 PM 59.0 °F - 15.8 °F 19% 30.17 in 10.0 mi North 10.4 mph - N/A   Clear
12:55 PM 59.0 °F - 15.8 °F 19% 30.17 in 10.0 mi North 5.8 mph - N/A   Clear
1:15 PM 59.0 °F - 17.6 °F 20% 30.16 in 10.0 mi North 6.9 mph - N/A   Clear
1:35 PM 60.8 °F - 15.8 °F 17% 30.17 in 10.0 mi NNW 10.4 mph - N/A   Clear
1:55 PM 60.8 °F - 15.8 °F 17% 30.16 in 10.0 mi NNW 10.4 mph 16.1 mph N/A   Clear
2:15 PM 60.8 °F - 15.8 °F 17% 30.16 in 10.0 mi NNW 11.5 mph - N/A   Clear
2:35 PM 60.8 °F - 17.6 °F 19% 30.16 in 10.0 mi North 9.2 mph - N/A   Clear
2:55 PM 60.8 °F - 19.4 °F 20% 30.15 in 10.0 mi North 4.6 mph - N/A   Clear
3:15 PM 60.8 °F - 19.4 °F 20% 30.15 in 10.0 mi NNE 6.9 mph - N/A   Clear
3:35 PM 60.8 °F - 19.4 °F 20% 30.16 in 10.0 mi NNE 6.9 mph - N/A   Clear
3:55 PM 60.8 °F - 17.6 °F 19% 30.16 in 10.0 mi NNE 6.9 mph - N/A   Clear
4:15 PM 60.8 °F - 15.8 °F 17% 30.17 in 10.0 mi North 4.6 mph - N/A   Clear
4:35 PM 59.0 °F - 17.6 °F 20% 30.17 in 10.0 mi North 4.6 mph - N/A   Clear
4:55 PM 57.2 °F - 15.8 °F 20% 30.17 in 10.0 mi North 3.5 mph - N/A   Clear
5:15 PM 57.2 °F - 15.8 °F 20% 30.17 in 10.0 mi North 3.5 mph - N/A   Clear
5:35 PM 55.4 °F - 15.8 °F 21% 30.18 in 10.0 mi North 3.5 mph - N/A   Clear
5:55 PM 55.4 °F - 15.8 °F 21% 30.18 in 10.0 mi North 3.5 mph - N/A   Clear
6:15 PM 55.4 °F - 15.8 °F 21% 30.19 in 10.0 mi North 3.5 mph - N/A   Clear
6:35 PM 55.4 °F - 15.8 °F 21% 30.19 in 10.0 mi North 4.6 mph - N/A   Clear
6:55 PM 53.6 °F - 15.8 °F 22% 30.20 in 10.0 mi North 5.8 mph - N/A   Clear
7:15 PM 53.6 °F - 15.8 °F 22% 30.20 in 10.0 mi North 5.8 mph - N/A   Clear
7:35 PM 53.6 °F - 17.6 °F 24% 30.21 in 10.0 mi North 5.8 mph - N/A   Clear
7:55 PM 53.6 °F - 17.6 °F 24% 30.22 in 10.0 mi North 3.5 mph - N/A   Clear
8:15 PM 51.8 °F - 19.4 °F 28% 30.22 in 10.0 mi NNW 6.9 mph - N/A   Clear
8:35 PM 51.8 °F - 19.4 °F 28% 30.22 in 10.0 mi NNW 6.9 mph - N/A   Clear
8:55 PM 51.8 °F - 21.2 °F 30% 30.22 in 10.0 mi North 4.6 mph - N/A   Clear
9:15 PM 50.0 °F - 21.2 °F 32% 30.22 in 10.0 mi NNW 5.8 mph - N/A   Clear
9:35 PM 50.0 °F - 21.2 °F 32% 30.22 in 10.0 mi NNW 5.8 mph - N/A   Clear
9:55 PM 50.0 °F - 21.2 °F 32% 30.22 in 10.0 mi NNW 4.6 mph - N/A   Clear
10:15 PM 50.0 °F - 21.2 °F 32% 30.22 in 10.0 mi NNW 4.6 mph - N/A   Clear
10:35 PM 50.0 °F - 21.2 °F 32% 30.22 in 10.0 mi NNW 4.6 mph - N/A   Clear
10:55 PM 50.0 °F - 21.2 °F 32% 30.22 in 10.0 mi NW 3.5 mph - N/A   Clear
11:15 PM 48.2 °F - 21.2 °F 34% 30.22 in 10.0 mi NW 4.6 mph - N/A   Clear
11:35 PM 48.2 °F - 23.0 °F 37% 30.22 in 10.0 mi Calm Calm - N/A   Clear
11:55 PM 48.2 °F - 21.2 °F 34% 30.22 in 10.0 mi NNW 3.5 mph - N/A   Clear